CZ-6A DEB, 54509

Orbit data source: Space-Track

CZ-6A DEB, 54509 is space debris in SSO originally from a launch on Fri, 11 Nov 2022 UTC launched from the Taiyaun Space Center, China (TSC). Debris objects in space refer to the collection of defunct objects orbiting the Earth. Examples of debris include non-operational satellites, rocket bodies, and fragments generated from explosions, collisions, or faulty payload assembly.

Loading next visibility...
Identifier
54509, 2022-151JM
Orbit
SSO
Country
Flag of CNCN / PRC
Related business
Manufacturer
SAST
Mission
Spacecraft
Bus & Motor
Unknown
Mass
Unknown
Launch date (UTC)
2022-11-11 (4 years ago)
Launch vehicle
Unknown
Launch site
Taiyaun Space Center, China (TSC)
Object type
Payload
Rocket body
Debris
Shape & HBR
Unknown shape, 0.2 m
Radar Cross Section
Medium (>0.1 m² and <1 m²)

Expand to show TLE details & history
Last TLE update: 1 day ago

TLE from 1 day ago
0 CZ-6A DEB
1 54509U 22151JM  26235.60024395  .00000101  00000-0  10526-3 0  9990
2 54509  98.9314 200.1888 0123938 251.7157 107.0485 13.92519991191847
Epoch: 2026-08-23T14:24Z
TLE epoch observation values (Epoch: 2026-08-23T14:24:21.077Z)
Latitude
-0.00008°
Longitude
12.20702°
Altitude
950.225 km
Speed
7.363 km/s
True Right ascension
13h 20m 45s
True Declination
0° 00' 00"
Sunlit
Object was in daylight at epoch
Visualization orbit readout
Latitude
Unknown
Longitude
Unknown
Altitude
Unknown
Speed
Unknown
Apparent Right ascension
Unknown
Apparent Declination
Unknown
Sunlit
N/A
Visualization observer readout
Local Sidereal Time
05:21:37
Azimuth
Unknown
Elevation
Unknown
Doppler factor
Unknown
Orbital elements
Apogee altitude
1,007.433 km
Perigee altitude
826.604 km
Semi-major axis
7,295.155 km
Eccentricity
0.01239
Inclination
98.9314°
RAAN
200.1888°
Arg. of periapsis
251.7157°
True anomaly
108.40005°
Mean anomaly
107.0485°
Eccentric anomaly
107.7249°
Mean motion
3.4833 °/min
Orbital period
103.35 mins
BSTAR
0.00010526
Loading maneuver chart data...
Computing Atmospheric mass density...
Loading historical data...
Loading historical data...
Loading historical data...
Loading historical data...
Loading historical data...
Loading historical data...
Loading historical data...

Documentation

Showing up to 5 results
|